Regional Weather Roundup
Issued by NWS Newport/Morehead, NC

Current Version | Previous Version | Graphics & Text | Print | Product List | Glossary On
Versions: 1 2 3 4 5 6 7 8 9 10 11 12 13 14 15 16 17 18 19 20 21 22 23 24 25 26 27 28 29 30 31 32 33 34 35 36 37 38 39 40 41 42 43 44 45 46 47 48 49 50
000
ASUS42 KMHX 270912
RWRMHX
WEATHER ROUNDUP FOR EASTERN NORTH CAROLINA
NATIONAL WEATHER SERVICE NEWPORT/MOREHEAD CITY NC
500 AM EDT MON APR 27 2015

NOTE: "FAIR" INDICATES FEW OR NO CLOUDS BELOW 12,000 FEET
WITH NO SIGNIFICANT WEATHER AND/OR OBSTRUCTIONS TO VISIBILITY

NCZ015>017-031-032-045>047-102-103-271000-
NORTH COAST

CITY           SKY/WX    TMP DP  RH WIND       PRES   REMARKS
EDENTON        CLEAR     42  41  97 CALM      29.74S
ELIZABETH CITY CLEAR     43  41  93 W5        29.74S
KITTY HAWK     SUNNY     49  42  77 NW3       29.71S
MANTEO         CLEAR     41  37  88 N3        29.72F

$$

NCZ045>047-081-094-103-104-271000-
CENTRAL COAST

CITY           SKY/WX    TMP DP  RH WIND       PRES   REMARKS
FRISCO         CLOUDY    52  39  61 N7        29.70F
SWANQUARTER      N/A     46 N/A N/A N2        29.68F

$$

NCZ095-097-098-100-101-271000-
SOUTHERN COAST

CITY           SKY/WX    TMP DP  RH WIND       PRES   REMARKS
BEAUFORT       CLOUDY    52  48  86 N10       29.72F
CEDAR ISLAND     N/A     55 N/A N/A N9G15     29.74F
JACKSONVILLE     N/A     50  47  89 NW7       29.74R
PINEY ISLAND   PTSUNNY  N/A N/A N/A N10       29.71F
WILMINGTON     MOCLDY    49  47  93 N5        29.74R


$$

NCZ011>013-027>030-043-044-078>080-089-090>093-098-271000-
COASTAL PLAIN

CITY           SKY/WX    TMP DP  RH WIND       PRES   REMARKS
AHOSKIE        CLEAR     40  39  98 CALM      29.75S FOG
CLINTON        CLEAR     47  47 100 CALM      29.76S
ELIZABETHTOWN  CLOUDY    50  50 100 NW3       29.76R
GOLDSBORO      CLEAR     46  46  99 CALM      29.73F
GREENVILLE     FOG       43  43 100 CALM      29.78R VSB 1/4
HAVELOCK       CLOUDY    50  46  86 NW8       29.74F
KENANSVILLE    PTCLDY    46  46  98 CALM      29.75F
KINSTON        CLEAR     46  45  97 CALM      29.75F
NEW BERN       MOCLDY    48  45  89 NW5       29.74F
RICHLANDS      PTCLDY    48  43  81 CALM      29.75R
ROCKY MOUNT    CLEAR     44  42  93 CALM      29.75F
WASHINGTON       N/A     44  43  97 CALM      29.74F FOG
WHITEVILLE     CLOUDY    50  48  94 CALM      29.75S

$$

AMZ130-135-150-152-154-156-158-170-250-252-270-ANZ085-086-088-633-658-670-271000-
MARINE OBSERVATIONS

STATION/POSITION TIME  TEMP    WIND        PRES    WAVE   SWELL
                       AIR SEA DIR/SP/G            HT/PER HT/PER
                 (UTC) (F)     (DEG/KT/KT) (MB)    (FT/S) (FT/S)
CHESAPEAKE LIGHT 0900   50     270/ 10/ 11 1007.0
64 E VA BEACH    0850   54 55  330/ 10/ 12 1005.6    4/ 8   3/ 8
DUCK             0800   51 54  310/  6/  6 1005.4
2 E DUCK         0811      53                N/A     3/ 6
10 NE DUCK       NOT AVBL
OREGON INLET     0800   47 54  330/  4/  5 1006.1
HATTERAS CG      0800   57 60  360/ 12/ 15 1005.5
DIAMOND BUOY     0850   59 75   10/ 19/ 23 1005.1    6/ 9   3/ 9
CAPE LOOKOUT     0900   53     340/ 13/ 16 1005.8
BEAUFORT LAB     0800   53 61  350/  8/ 10 1005.4
27 SE WRIGHTSVLE 0800   55 72   20/ 14/ 17   N/A
5 SE WRIGHTSVLE  NOT AVBL
225 S CAPE HAT   0850   67 70  360/ 12/ 14 1003.5    7/ 8   7/ 8
41 SE CHARLESTON 0850   63 71   30/ 16/ 17 1004.8    5/ 6   2/11

$$



USA.gov is the U.S. government's official web portal to all federal, state and local government web resources and services.